STARLINK-2380, 47799

Orbit data source: Space-Track

STARLINK-2380, 47799 is a payload satellite owned by SpaceX/Seattle (US) in LEO that was launched on Thu, 11 Mar 2021 UTC via an FALCON 9 launch vehicle from the Air Force Eastern Test Range (AFETR). Payload-class satellites include a variety of spacecraft equipped with specific instruments for various scientific and technological missions. These include communications satellites like Starlink; space stations such as the ISS; scientific satellites like the Hubble; Earth observation satellites from companies like Planet Labs, Umbra, and HawkEye 360; GPS; miniature CubeSats for education and research; and military/defense satellites.

Loading next visibility...
Identifier
47799, 2021-018N
Orbit
LEO
Country
Flag of USUS
Related business
Manufacturer
SpaceX/Seattle
Mission
Operational Commercial Communications
Bus & Motor
STARLINK, Unknown motor
Mass
260 kg wet, ~248 kg dry
Launch date (UTC)
2021-03-11 (5 years ago)
Launch vehicle
FALCON 9
Launch site
Air Force Eastern Test Range (AFETR)
Object type
Payload
Rocket body
Debris
Shape & HBR
Box + 1 Pan, 10.1 m
Radar Cross Section
13.562 m², Large (>1 m²)

Expand to show TLE details & history
Last TLE update: 16 hours ago

TLE from 16 hours ago
0 STARLINK-2380
1 47799U 21018N   26119.97222252  .00006070  00000-0  20720-3 0  9995
2 47799  53.1614 353.7450 0001589  88.3456 271.7727 15.31703120284710
Epoch: 2026-04-29T23:20Z
TLE epoch observation values (Epoch: 2026-04-29T23:20:00.025Z)
Latitude
-0.00007°
Longitude
145.81933°
Altitude
471.598 km
Speed
7.631 km/s
True Right ascension
23h 34m 58s
True Declination
0° 00' 00"
Sunlit
Object was in daylight at epoch
Visualization orbit readout
Latitude
Unknown
Longitude
Unknown
Altitude
Unknown
Speed
Unknown
Apparent Right ascension
Unknown
Apparent Declination
Unknown
Sunlit
N/A
Visualization observer readout
Local Sidereal Time
22:54:01
Azimuth
Unknown
Elevation
Unknown
Doppler factor
Unknown
Orbital elements
Apogee altitude
472.075 km
Perigee altitude
469.899 km
Semi-major axis
6,849.124 km
Eccentricity
0.00016
Inclination
53.1614°
RAAN
353.745°
Arg. of periapsis
88.3456°
True anomaly
271.7545°
Mean anomaly
271.7727°
Eccentric anomaly
271.7636°
Mean motion
3.82905 °/min
Orbital period
94.02 mins
BSTAR
0.0002072
Loading maneuver chart data...
Computing Atmospheric mass density...
Loading historical data...
Loading historical data...
Loading historical data...
Loading historical data...
Loading historical data...
Loading historical data...
Loading historical data...

Documentation

Showing up to 5 results
|